Flag for Lithuania Weather past 2 weeks in Kaunas, Lithuania

Now
70 °F

Partly sunny.


Feels Like: 70 °F
Forecast: 63 / 79 °F
Wind: No wind

Location: Kaunas

Current Time: Jul 31, 2014 at 7:22:40 PM

Latest Report: Jul 31, 2014 at 6:50 PM


Visibility: N/A

Pressure: 29.83 "Hg

Humidity: 88%

Dew point: 66 °F

Location of KaunasLocation

Historic Weather in Kaunas — Graph

°F

Kaunas temperature yesterday

Maximum temperature yesterday: 90 °F (at 1:50 PM)
Minimum temperature yesterday: 61 °F (at 3:50 AM)
Average temperature yesterday: 76 °F

Past Weeks' High & Low Weather Summary

 TemperatureHumidityPressure
High91 °F (Jul 29, 3:20 PM)94% (Jul 17, 3:20 AM)30.18 "Hg (Jul 17, 3:20 AM)
Low50 °F (Jul 24, 5:20 AM)18% (Jul 30, 3:50 PM)29.77 "Hg (Jul 31, 2:54 PM)
Average71 °F60%30.02 "Hg
* Reported Jul 16 6:20 PM — Jul 31 6:20 PM, Kaunas, Weather by CustomWeather, © 2014

Note: Actual official high and low records may vary slightly from our data, if they occured in-between our weather recording intervals... More about our weather records

Advertising

Kaunas weather history for previous 24 hours

 ConditionsComfort  
Time TempWeatherWind HumidityBarometerVisibility
6:20 PM
Jul 31
70 °FMore clouds than sun.3 mph88%29.83 "HgN/A
5:50 PM68 °FPartly sunny.6 mph88%29.83 "HgN/A
5:20 PM66 °FThundershowers. Partly sunny.3 mph88%29.83 "HgN/A
4:50 PM66 °FThunderstorms. Overcast.5 mph94%29.83 "Hg3 mi
4:20 PM68 °FThunderstorms. Overcast.7 mph88%29.83 "Hg6 mi
3:50 PM72 °FThunderstorms. Broken clouds.12 mph83%29.83 "Hg6 mi
3:20 PM75 °FThunderstorms. More clouds than sun.6 mph65%29.80 "Hg3 mi
2:54 PM79 °FThunderstorms. Overcast.1 mph58%29.77 "HgN/A
2:20 PM81 °FThunderstorms. Broken clouds.5 mph48%29.80 "HgN/A
1:50 PM82 °FBroken clouds.9 mph45%29.80 "HgN/A
1:20 PM86 °FPartly sunny.12 mph40%29.80 "HgN/A
12:50 PM86 °FScattered showers. Scattered clouds.9 mph43%29.80 "HgN/A
12:20 PM84 °FThundershowers. Partly sunny.8 mph43%29.80 "HgN/A
11:50 AM77 °FPartly sunny.2 mph54%29.80 "HgN/A
11:20 AM75 °FPassing clouds.7 mph57%29.80 "HgN/A
10:50 AM77 °FPassing clouds.13 mph51%29.80 "HgN/A
10:20 AM77 °FPassing clouds.9 mph54%29.80 "HgN/A
9:50 AM77 °FPassing clouds.12 mph54%29.80 "HgN/A
9:20 AM75 °FPassing clouds.12 mph54%29.80 "HgN/A
8:50 AM73 °FPassing clouds.9 mph53%29.80 "HgN/A
8:20 AM73 °FPassing clouds.10 mph53%29.80 "HgN/A
7:50 AM72 °FPassing clouds.12 mph57%29.80 "HgN/A
7:20 AM68 °FPassing clouds.3 mph64%29.80 "HgN/A
6:50 AM68 °FSunny.6 mph64%29.80 "Hg10 mi
6:20 AM68 °FClear.3 mph64%29.80 "Hg10 mi
5:50 AM68 °FPassing clouds.3 mph64%29.80 "HgN/A
5:20 AM64 °FClear.2 mph73%29.80 "Hg10 mi
4:50 AM66 °FClear.1 mph68%29.80 "Hg10 mi
4:20 AM66 °FClear.1 mph68%29.80 "Hg10 mi
3:50 AM63 °FClear.3 mph77%29.80 "Hg10 mi
3:20 AM64 °FMild.2 mph73%29.80 "HgN/A
2:50 AM66 °FPassing clouds.1 mph68%29.80 "HgN/A
2:20 AM68 °FOvercast.3 mph60%29.80 "HgN/A
1:50 AM70 °FMild.1 mph57%29.80 "HgN/A
1:20 AM68 °FClear.3 mph60%29.80 "Hg10 mi
12:50 AM68 °FClear.2 mph60%29.80 "Hg10 mi
12:20 AM72 °FClear.5 mph50%29.80 "Hg10 mi
11:50 PM
Jul 30
72 °FClear.7 mph50%29.80 "Hg10 mi
11:20 PM72 °FClear.6 mph50%29.80 "Hg10 mi
10:50 PM72 °FClear.5 mph53%29.80 "Hg10 mi
10:20 PM73 °FSunny.5 mph53%29.80 "Hg10 mi
9:50 PM73 °FSunny.5 mph53%29.80 "Hg10 mi
9:20 PM79 °FSunny.5 mph42%29.80 "Hg10 mi
8:50 PM81 °FSunny.5 mph37%29.80 "Hg10 mi
8:20 PM84 °FPassing clouds.5 mph33%29.80 "HgN/A
7:50 PM86 °FSunny.6 mph29%29.80 "Hg10 mi
7:20 PM86 °FPassing clouds.8 mph25%29.80 "HgN/A
Weather by CustomWeather, © 2014

See weather overviewHow to use our weather pages